"startDT [UTC]","vpos","CH4 [ppm]","stdev(CH4) [ppm]","CO2 [ppm]","stdev(CO2) [ppm]","H2O_reported [%]","stdev(H2O_reported)","CavityPressure [torr]","CavityTemp [C]","OutletValve","CH4_dry [ppm]","CO2_dry [ppm]","DasTemp [C]","EtalonTemp [C]","WarmBoxTemp [C]","MPVPosition","T_ECpre [C]","T_EC1 [C]","T_EC2 [C]","p_inlet [hPa]","p_in [hPa]","p_out [hPa]","T_inlet [C]","RH_inlet [%]","dwpt_inlet [C]","T_vent [C]","RH_vent [%]","dwpt_vent [C]","flow_vent [l min-1]","flow_inlet [l min-1]","dwpt_sample [C]","T_room [C]"
2015-06-15 00:00:00,0.0,1.88859,0.00036,400.754,0.043,0.5404,0.0016,139.999,45.000,34269.14453,1.89880,403.402,32.444,45.068,45.000,0.00,0.10,-272.73,-272.79,-5,984,-4,22.6,14.7,-5.6,22.3,15.2,-5.4,5.73,1.90,-3.0,26.9
2015-06-15 00:01:00,0.0,1.88888,0.00028,400.724,0.029,0.5408,0.0033,139.998,45.000,34268.51061,1.89908,403.373,32.449,45.068,45.000,0.00,0.10,-272.73,-272.79,-6,984,-4,22.6,14.8,-5.5,22.3,15.2,-5.4,5.73,1.99,-3.0,26.9
2015-06-15 00:02:00,0.0,1.88816,0.00032,400.677,0.053,0.5515,0.0055,140.000,45.000,34268.69977,1.89863,403.379,32.448,45.068,45.000,0.00,0.10,-272.72,-272.79,-6,984,-4,22.6,15.1,-5.3,22.3,15.5,-5.2,5.73,1.98,-3.0,26.9
2015-06-15 00:03:00,0.0,1.88839,0.00027,400.661,0.030,0.5559,0.0018,139.998,45.000,34267.67732,1.89891,403.384,32.461,45.068,45.000,0.00,0.10,-272.73,-272.79,-5,984,-4,22.6,15.2,-5.2,22.3,15.7,-5.0,5.73,1.89,-3.0,26.9
2015-06-15 00:04:00,0.0,1.88842,0.00036,400.709,0.026,0.5451,0.0023,140.000,45.000,34268.72808,1.89866,403.382,32.485,45.068,45.000,0.00,0.10,-272.73,-272.80,-6,984,-4,22.6,14.9,-5.4,22.3,15.4,-5.2,5.73,1.86,-3.0,26.9
2015-06-15 00:05:00,0.0,1.88864,0.00042,400.669,0.024,0.5503,0.0037,139.999,45.000,34266.54427,1.89904,403.364,32.500,45.068,45.000,0.00,0.10,-272.73,-272.79,-6,984,-4,22.6,15.1,-5.3,22.3,15.5,-5.2,5.73,1.95,-3.0,26.9
2015-06-15 00:06:00,0.0,1.88868,0.00032,400.704,0.025,0.5485,0.0039,140.000,45.000,34267.67860,1.89907,403.391,32.500,45.068,45.000,0.00,0.10,-272.73,-272.79,-6,984,-4,22.6,15.0,-5.3,22.3,15.5,-5.1,5.73,2.01,-3.0,26.9
2015-06-15 00:07:00,0.0,1.88835,0.00048,400.646,0.051,0.5509,0.0047,140.003,45.000,34268.88950,1.89874,403.345,32.500,45.068,45.000,0.00,0.10,-272.74,-272.79,-5,984,-4,22.6,15.1,-5.3,22.4,15.5,-5.1,5.73,1.93,-3.0,26.9
2015-06-15 00:08:00,0.0,1.88799,0.00037,400.548,0.051,0.5707,0.0039,140.002,45.000,34271.07589,1.89879,403.348,32.499,45.068,45.000,0.00,0.10,-272.73,-272.79,-6,984,-4,22.6,15.7,-4.8,22.4,16.0,-4.7,5.73,1.85,-3.0,26.9
2015-06-15 00:09:00,0.0,1.88739,0.00059,400.501,0.033,0.5765,0.0038,139.998,45.000,34271.00145,1.89835,403.322,32.501,45.068,45.000,0.00,0.10,-272.72,-272.79,-6,984,-4,22.6,15.8,-4.6,22.4,16.3,-4.4,5.73,1.89,-3.0,26.9
2015-06-15 00:10:00,0.0,1.88808,0.00043,400.647,0.038,0.5602,0.0093,139.999,45.000,34271.99164,1.89860,403.395,32.500,45.068,45.000,0.00,0.10,-272.73,-272.79,-6,984,-4,22.6,15.3,-5.1,22.4,15.9,-4.7,5.73,1.99,-3.0,26.9
2015-06-15 00:11:00,0.0,1.88826,0.00030,400.727,0.035,0.5424,0.0040,140.000,45.000,34271.52230,1.89854,403.382,32.500,45.068,45.000,0.00,0.10,-272.73,-272.79,-6,984,-4,22.6,14.8,-5.5,22.4,15.3,-5.3,5.73,1.98,-3.0,26.9
2015-06-15 00:12:00,0.0,1.88806,0.00027,400.675,0.039,0.5542,0.0033,140.002,45.000,34272.83631,1.89853,403.393,32.506,45.068,45.000,0.00,0.10,-272.73,-272.78,-6,984,-4,22.6,15.1,-5.2,22.4,15.6,-5.0,5.73,1.89,-3.0,26.9
2015-06-15 00:13:00,0.0,1.88811,0.00038,400.636,0.038,0.5510,0.0034,139.999,45.000,34271.54139,1.89850,403.336,32.507,45.068,45.000,0.00,0.10,-272.73,-272.79,-6,984,-4,22.6,15.1,-5.3,22.4,15.5,-5.1,5.73,1.85,-3.0,26.9
2015-06-15 00:14:00,0.0,1.88804,0.00032,400.663,0.040,0.5492,0.0060,140.004,45.000,34274.61543,1.89845,403.354,32.526,45.068,45.000,0.00,0.10,-272.74,-272.80,-6,984,-4,22.6,15.0,-5.4,22.4,15.5,-5.1,5.73,1.93,-3.0,26.9
2015-06-15 00:15:00,0.0,1.88826,0.00030,400.638,0.044,0.5500,0.0049,140.000,45.000,34272.93495,1.89860,403.333,32.508,45.068,45.000,0.00,0.10,-272.73,-272.79,-6,984,-4,22.7,15.0,-5.3,22.4,15.4,-5.2,5.73,2.00,-3.0,26.9
2015-06-15 00:16:00,0.0,1.88807,0.00047,400.659,0.074,0.5601,0.0052,139.997,45.000,34269.95789,1.89870,403.400,32.506,45.068,45.000,0.00,0.10,-272.72,-272.79,-6,984,-4,22.6,15.3,-5.1,22.4,15.7,-4.9,5.73,1.96,-3.0,26.9
2015-06-15 00:17:00,0.0,1.88803,0.00041,400.731,0.175,0.5592,0.0077,139.999,45.000,34271.16093,1.89857,403.473,32.501,45.068,45.000,0.00,0.10,-272.73,-272.79,-6,984,-4,22.7,15.2,-5.1,22.4,15.8,-4.8,5.73,1.86,-3.0,26.9
2015-06-15 00:18:00,0.0,1.88886,0.00038,400.848,0.058,0.5300,0.0077,140.001,45.000,34269.98009,1.89886,403.447,32.499,45.068,45.000,0.00,0.10,-272.73,-272.79,-5,984,-4,22.7,14.4,-5.8,22.4,15.0,-5.5,5.73,1.88,-3.0,26.9
2015-06-15 00:19:00,0.0,1.88839,0.00038,400.737,0.059,0.5365,0.0087,140.001,45.000,34271.53191,1.89852,403.365,32.470,45.068,45.000,0.00,0.10,-272.73,-272.78,-6,985,-4,22.7,14.6,-5.6,22.4,14.9,-5.6,5.73,1.98,-3.0,26.9
2015-06-15 00:20:00,0.0,1.88846,0.00028,400.740,0.039,0.5456,0.0079,140.004,45.000,34269.79885,1.89879,403.414,32.423,45.068,45.000,0.00,0.10,-272.73,-272.79,-6,984,-4,22.7,14.9,-5.4,22.4,15.4,-5.2,5.73,1.99,-3.0,26.9
2015-06-15 00:21:00,0.0,1.88848,0.00028,400.772,0.030,0.5380,0.0043,139.994,44.999,34267.70812,1.89864,403.405,32.377,45.068,45.000,0.00,0.10,-272.73,-272.80,-5,984,-4,22.6,14.7,-5.6,22.4,15.1,-5.4,5.73,1.88,-3.0,26.8
2015-06-15 00:22:00,0.0,1.88803,0.00038,400.778,0.048,0.5467,0.0059,139.995,44.999,34266.37267,1.89835,403.456,32.324,45.068,44.999,0.00,0.10,-272.72,-272.79,-6,985,-4,22.6,14.9,-5.5,22.4,15.4,-5.2,5.73,1.85,-3.0,26.8
2015-06-15 00:23:00,0.0,1.88834,0.00029,400.844,0.018,0.5310,0.0045,139.999,44.999,34266.77483,1.89839,403.445,32.268,45.068,44.999,0.00,0.10,-272.72,-272.79,-6,984,-4,22.6,14.5,-5.8,22.3,14.9,-5.6,5.73,1.97,-3.0,26.8
2015-06-15 00:24:00,0.0,1.88813,0.00034,400.779,0.034,0.5389,0.0025,139.999,44.999,34264.29782,1.89828,403.422,32.208,45.068,44.999,0.00,0.10,-272.73,-272.79,-6,984,-4,22.6,14.7,-5.6,22.4,15.1,-5.5,5.73,2.00,-3.0,26.7
2015-06-15 00:25:00,0.0,1.88833,0.00030,400.785,0.044,0.5411,0.0043,140.002,44.999,34263.43737,1.89857,403.437,32.154,45.068,45.000,0.00,0.10,-272.73,-272.78,-6,985,-4,22.6,14.8,-5.5,22.4,15.2,-5.4,5.73,1.87,-3.1,26.8
2015-06-15 00:26:00,0.0,1.88808,0.00031,400.757,0.041,0.5482,0.0061,139.999,44.999,34261.11869,1.89843,403.440,32.101,45.068,45.000,0.00,0.10,-272.72,-272.79,-6,985,-4,22.6,15.0,-5.4,22.3,15.4,-5.2,5.73,1.86,-3.1,26.7
2015-06-15 00:27:00,0.0,1.88817,0.00031,400.767,0.031,0.5464,0.0027,139.998,44.999,34259.54260,1.89850,403.445,32.056,45.068,45.000,0.00,0.10,-272.73,-272.79,-6,985,-4,22.5,14.9,-5.5,22.3,15.4,-5.2,5.73,1.99,-3.1,26.8
2015-06-15 00:28:00,0.0,1.88827,0.00040,400.835,0.031,0.5328,0.0034,140.001,44.999,34259.03861,1.89836,403.445,32.002,45.068,45.000,0.00,0.10,-272.73,-272.80,-6,985,-4,22.5,14.6,-5.8,22.3,15.1,-5.5,5.73,1.98,-3.1,26.7
2015-06-15 00:29:00,0.0,1.88840,0.00030,400.830,0.054,0.5394,0.0018,140.000,44.999,34257.57896,1.89856,403.473,31.944,45.068,45.000,0.00,0.10,-272.72,-272.79,-7,985,-4,22.5,14.8,-5.6,22.3,15.1,-5.5,5.73,1.84,-3.1,26.6
2015-06-15 00:30:00,0.0,1.88853,0.00035,400.746,0.043,0.5458,0.0082,139.999,44.999,34253.55217,1.89881,403.419,31.904,45.068,45.000,0.00,0.10,-272.73,-272.79,-6,985,-4,22.5,15.0,-5.4,22.3,15.3,-5.3,5.73,1.89,-3.1,26.7
2015-06-15 00:31:00,0.0,1.88886,0.00037,400.757,0.030,0.5484,0.0042,139.999,44.999,34250.43867,1.89921,403.446,31.844,45.068,45.000,0.00,0.10,-272.74,-272.79,-6,985,-4,22.5,15.0,-5.4,22.3,15.5,-5.2,5.73,2.02,-3.2,26.6
2015-06-15 00:32:00,0.0,1.88849,0.00025,400.811,0.030,0.5418,0.0033,139.997,44.999,34249.43488,1.89874,403.466,31.809,45.068,45.000,0.00,0.10,-272.73,-272.78,-7,985,-4,22.5,14.9,-5.6,22.2,15.3,-5.4,5.73,1.92,-3.2,26.5
2015-06-15 00:33:00,0.0,1.88844,0.00031,400.781,0.020,0.5490,0.0036,140.004,44.999,34248.73417,1.89883,403.472,31.762,45.068,45.000,0.00,0.10,-272.73,-272.79,-6,985,-4,22.5,15.1,-5.4,22.2,15.5,-5.2,5.73,1.83,-3.2,26.5
2015-06-15 00:34:00,0.0,1.88829,0.00036,400.724,0.043,0.5557,0.0065,140.001,44.999,34248.34935,1.89881,403.448,31.726,45.068,45.000,0.00,0.10,-272.73,-272.79,-6,985,-4,22.5,15.3,-5.2,22.2,15.7,-5.1,5.73,1.97,-3.2,26.5
2015-06-15 00:35:00,0.0,1.88821,0.00036,400.784,0.028,0.5460,0.0026,140.002,44.999,34246.86275,1.89853,403.461,31.689,45.068,45.000,0.00,0.10,-272.73,-272.79,-7,985,-4,22.4,15.1,-5.4,22.2,15.5,-5.2,5.73,2.00,-3.2,26.5
2015-06-15 00:36:00,0.0,1.88831,0.00031,400.722,0.021,0.5548,0.0037,139.998,44.999,34241.95942,1.89876,403.440,31.640,45.068,45.000,0.00,0.10,-272.73,-272.78,-6,985,-4,22.4,15.4,-5.2,22.2,15.7,-5.1,5.73,1.85,-3.2,26.3
2015-06-15 00:37:00,0.0,1.88820,0.00042,400.707,0.030,0.5594,0.0054,140.001,44.999,34241.85701,1.89879,403.448,31.625,45.068,45.000,0.00,0.10,-272.73,-272.79,-6,985,-4,22.4,15.5,-5.1,22.1,15.9,-5.0,5.73,1.88,-3.2,26.4
2015-06-15 00:38:00,0.0,1.88816,0.00038,400.661,0.039,0.5691,0.0026,140.001,44.999,34240.91266,1.89887,403.450,31.597,45.068,45.000,0.00,0.10,-272.73,-272.79,-6,985,-4,22.3,15.8,-4.9,22.1,16.2,-4.7,5.73,2.01,-3.2,26.3
2015-06-15 00:39:00,0.0,1.88841,0.00040,400.811,0.150,0.5617,0.0028,139.999,45.000,34238.33511,1.89906,403.566,31.606,45.068,45.000,0.00,0.10,-272.73,-272.78,-6,985,-4,22.3,15.7,-5.0,22.1,16.1,-4.8,5.73,1.95,-3.3,26.3
2015-06-15 00:40:00,0.0,1.88840,0.00037,400.705,0.036,0.5633,0.0034,140.000,45.000,34237.00198,1.89905,403.468,31.632,45.068,45.000,0.00,0.10,-272.73,-272.79,-6,984,-4,22.3,15.7,-5.0,22.1,16.1,-4.8,5.73,1.86,-3.3,26.3
2015-06-15 00:41:00,0.0,1.88816,0.00041,400.700,0.035,0.5626,0.0032,140.001,45.000,34238.43116,1.89883,403.458,31.704,45.069,45.000,0.00,0.10,-272.73,-272.80,-6,984,-3,22.3,15.7,-5.0,22.1,16.1,-4.9,5.73,1.89,-3.3,26.2
2015-06-15 00:42:00,0.0,1.88799,0.00029,400.652,0.048,0.5742,0.0037,139.999,45.001,34237.58220,1.89881,403.467,31.788,45.069,45.000,0.00,0.10,-272.73,-272.80,-6,984,-3,22.2,16.1,-4.7,22.1,16.4,-4.6,5.73,1.93,-3.3,26.3
2015-06-15 00:43:00,0.0,1.88820,0.00037,400.736,0.050,0.5602,0.0062,140.003,45.001,34240.03528,1.89883,403.481,31.906,45.069,45.000,0.00,0.10,-272.73,-272.79,-5,983,-3,22.2,15.7,-5.0,22.1,16.2,-4.8,5.73,1.95,-3.3,26.4
2015-06-15 00:44:00,0.0,1.88833,0.00027,400.761,0.029,0.5558,0.0019,139.999,45.001,34242.42797,1.89880,403.485,32.023,45.069,45.000,0.00,0.10,-272.73,-272.79,-5,983,-4,22.2,15.6,-5.2,22.1,15.9,-5.0,5.73,1.94,-3.3,26.4
2015-06-15 00:45:00,0.0,1.88827,0.00039,400.715,0.050,0.5607,0.0086,139.998,45.001,34245.27277,1.89886,403.464,32.135,45.068,45.000,0.00,0.10,-272.73,-272.79,-5,982,-4,22.1,15.8,-5.1,22.0,16.0,-5.0,5.73,1.94,-3.3,26.4
2015-06-15 00:46:00,0.0,1.88808,0.00040,400.689,0.041,0.5700,0.0071,140.003,45.002,34248.70541,1.89888,403.484,32.245,45.068,45.000,0.00,0.10,-272.73,-272.79,-5,981,-3,22.1,16.1,-4.9,22.0,16.4,-4.6,5.73,1.93,-3.3,26.5
2015-06-15 00:47:00,0.0,1.88814,0.00038,400.683,0.034,0.5706,0.0049,140.000,45.002,34247.62365,1.89891,403.481,32.367,45.068,45.000,0.00,0.10,-272.73,-272.79,-5,981,-3,22.1,16.1,-4.8,22.0,16.3,-4.7,5.73,1.93,-3.3,26.5
2015-06-15 00:48:00,0.0,1.88817,0.00037,400.689,0.033,0.5678,0.0028,140.003,45.002,34251.78170,1.89894,403.474,32.471,45.068,45.000,0.00,0.10,-272.73,-272.79,-5,980,-3,22.1,16.1,-4.9,22.0,16.4,-4.7,5.73,1.93,-3.3,26.5
2015-06-15 00:49:00,0.0,1.88796,0.00035,400.688,0.023,0.5675,0.0034,140.001,45.001,34253.08280,1.89867,403.469,32.553,45.068,44.999,0.00,0.10,-272.73,-272.79,-5,979,-3,22.0,16.1,-4.9,22.0,16.4,-4.7,5.73,1.93,-3.3,26.4
2015-06-15 00:50:00,0.0,1.88802,0.00044,400.677,0.036,0.5730,0.0050,140.003,45.001,34252.71166,1.89885,403.484,32.636,45.068,44.999,0.00,0.10,-272.73,-272.79,-5,980,-3,22.1,16.2,-4.7,22.0,16.5,-4.6,5.73,1.93,-3.3,26.4
2015-06-15 00:51:00,0.0,1.88751,0.00034,400.613,0.026,0.5822,0.0050,139.998,45.001,34253.17591,1.89850,403.468,32.695,45.068,44.999,0.00,0.10,-272.73,-272.79,-5,979,-3,22.1,16.5,-4.5,22.0,16.8,-4.4,5.73,1.93,-3.3,26.3
2015-06-15 00:52:00,0.0,1.88792,0.00056,400.613,0.027,0.5932,0.0027,139.999,45.001,34249.10227,1.89907,403.525,32.753,45.068,44.999,0.00,0.10,-272.73,-272.79,-4,979,-3,22.1,16.8,-4.2,22.0,17.1,-4.1,5.73,1.93,-3.3,26.2
2015-06-15 00:53:00,0.0,1.88804,0.00044,400.686,0.039,0.5784,0.0060,140.000,45.001,34250.45226,1.89912,403.527,32.795,45.068,44.999,0.00,0.10,-272.72,-272.79,-5,979,-3,22.1,16.4,-4.6,22.0,16.8,-4.3,5.73,1.93,-3.3,26.2
2015-06-15 00:54:00,0.0,1.88764,0.00042,400.634,0.032,0.5828,0.0050,139.999,45.001,34252.60353,1.89860,403.489,32.812,45.068,45.000,0.00,0.10,-272.73,-272.80,-5,979,-3,22.1,16.5,-4.5,22.0,16.8,-4.4,5.73,1.94,-3.3,26.2
2015-06-15 00:55:00,0.0,1.88758,0.00028,400.625,0.031,0.5875,0.0033,139.998,45.001,34252.47569,1.89872,403.508,32.813,45.068,45.000,0.00,0.10,-272.73,-272.79,-4,978,-3,22.2,16.6,-4.3,22.0,17.0,-4.2,5.73,1.94,-3.3,26.2
2015-06-15 00:56:00,0.0,1.88735,0.00038,400.534,0.037,0.5988,0.0084,139.997,45.001,34251.19721,1.89866,403.469,32.812,45.068,45.000,0.00,0.10,-272.73,-272.78,-5,979,-3,22.2,17.0,-4.0,22.1,17.2,-4.0,5.73,1.95,-3.3,26.3
2015-06-15 00:57:00,0.0,1.88773,0.00044,400.534,0.043,0.6082,0.0087,140.000,45.000,34249.78065,1.89923,403.521,32.808,45.068,45.000,0.00,0.10,-272.73,-272.79,-5,979,-3,22.2,17.2,-3.8,22.1,17.7,-3.6,5.73,1.96,-3.3,26.4
2015-06-15 00:58:00,0.0,1.88744,0.00036,400.572,0.022,0.5975,0.0028,140.002,45.000,34251.15779,1.89878,403.503,32.776,45.068,45.000,0.00,0.10,-272.74,-272.80,-5,979,-3,22.2,16.9,-4.1,22.1,17.3,-3.9,5.73,1.97,-3.2,26.4
2015-06-15 00:59:00,0.0,1.88748,0.00043,400.568,0.033,0.5972,0.0039,140.002,45.000,34250.30135,1.89878,403.499,32.750,45.069,45.000,0.00,0.10,-272.73,-272.79,-4,980,-4,22.3,16.9,-4.1,22.1,17.3,-3.9,5.73,1.96,-3.2,26.4
2015-06-15 01:00:00,0.0,1.88753,0.00034,400.571,0.023,0.5970,0.0041,140.001,45.000,34248.60385,1.89881,403.498,32.750,45.069,45.001,0.00,0.10,-272.73,-272.79,-5,980,-4,22.3,16.8,-4.1,22.1,17.2,-3.9,5.73,1.93,-3.2,26.5
2015-06-15 01:01:00,0.0,1.88751,0.00032,400.586,0.025,0.5961,0.0030,140.002,45.000,34249.26529,1.89875,403.509,32.744,45.069,45.001,0.00,0.10,-272.74,-272.79,-5,981,-3,22.3,16.8,-4.1,22.1,17.2,-4.0,5.73,1.89,-3.2,26.5
2015-06-15 01:02:00,0.0,1.88772,0.00028,400.599,0.036,0.5976,0.0063,139.996,45.000,34246.91774,1.89902,403.533,32.707,45.069,45.001,0.00,0.10,-272.73,-272.78,-5,981,-3,22.3,16.8,-4.1,22.1,17.3,-3.9,5.73,1.88,-3.2,26.5
2015-06-15 01:03:00,0.0,1.88761,0.00038,400.586,0.043,0.5923,0.0050,140.004,45.000,34251.41718,1.89883,403.493,32.689,45.069,45.001,0.00,0.10,-272.73,-272.78,-5,981,-3,22.3,16.7,-4.2,22.1,17.1,-4.0,5.73,1.91,-3.2,26.5
2015-06-15 01:04:00,0.0,1.88774,0.00033,400.581,0.033,0.5999,0.0055,140.003,45.000,34252.56064,1.89908,403.524,32.688,45.069,45.001,0.00,0.10,-272.73,-272.79,-5,982,-3,22.3,16.9,-4.1,22.1,17.3,-3.8,5.73,1.97,-3.2,26.5
2015-06-15 01:05:00,0.0,1.88766,0.00038,400.612,0.028,0.5844,0.0037,139.997,45.000,34253.25824,1.89871,403.482,32.681,45.069,45.000,0.00,0.10,-272.73,-272.79,-5,982,-4,22.3,16.4,-4.4,22.1,16.9,-4.2,5.73,1.99,-3.2,26.5
2015-06-15 01:06:00,0.0,1.88775,0.00032,400.579,0.032,0.5886,0.0028,139.999,45.000,34254.65475,1.89892,403.466,32.654,45.069,45.001,0.00,0.10,-272.72,-272.79,-6,982,-3,22.3,16.5,-4.3,22.1,17.0,-4.1,5.73,1.96,-3.2,26.5
2015-06-15 01:07:00,0.0,1.88752,0.00038,400.555,0.031,0.5989,0.0029,140.001,45.000,34253.77921,1.89883,403.492,32.652,45.069,45.000,0.00,0.10,-272.73,-272.80,-5,982,-3,22.3,16.8,-4.1,22.1,17.2,-3.9,5.73,1.90,-3.2,26.5
2015-06-15 01:08:00,0.0,1.88782,0.00034,400.597,0.026,0.5934,0.0027,139.999,45.000,34253.49796,1.89908,403.509,32.660,45.068,45.000,0.00,0.10,-272.73,-272.80,-5,983,-3,22.3,16.7,-4.2,22.1,17.1,-4.0,5.73,1.87,-3.2,26.5
2015-06-15 01:09:00,0.0,1.88794,0.00047,400.559,0.047,0.5993,0.0057,140.005,45.000,34253.76994,1.89922,403.498,32.634,45.068,45.000,0.00,0.10,-272.72,-272.79,-5,983,-4,22.3,16.8,-4.0,22.1,17.2,-3.9,5.73,1.91,-3.2,26.5
2015-06-15 01:10:00,0.0,1.88748,0.00036,400.472,0.039,0.6157,0.0037,139.997,45.000,34252.84851,1.89920,403.493,32.637,45.068,45.000,0.00,0.10,-272.73,-272.79,-6,983,-4,22.3,17.3,-3.7,22.1,17.6,-3.6,5.73,1.97,-3.2,26.6
2015-06-15 01:11:00,0.0,1.88757,0.00043,400.484,0.036,0.6226,0.0060,140.003,45.000,34252.94054,1.89928,403.541,32.632,45.068,45.000,0.00,0.10,-272.73,-272.79,-6,983,-4,22.3,17.5,-3.5,22.1,18.0,-3.3,5.73,1.99,-3.2,26.6
2015-06-15 01:12:00,0.0,1.88778,0.00048,400.539,0.033,0.6102,0.0025,139.998,45.000,34253.97576,1.89937,403.533,32.625,45.068,45.000,0.00,0.10,-272.73,-272.79,-5,983,-4,22.3,17.1,-3.8,22.1,17.6,-3.6,5.73,1.93,-3.2,26.5
2015-06-15 01:13:00,0.0,1.88789,0.00047,400.579,0.026,0.6026,0.0035,139.998,45.000,34253.85767,1.89927,403.536,32.639,45.068,45.000,0.00,0.10,-272.73,-272.79,-5,984,-4,22.4,16.9,-4.0,22.1,17.4,-3.8,5.73,1.86,-3.2,26.5
2015-06-15 01:14:00,0.0,1.88764,0.00029,400.519,0.040,0.6101,0.0018,140.002,45.000,34256.12634,1.89922,403.513,32.642,45.068,45.000,0.00,0.10,-272.73,-272.79,-6,984,-4,22.4,17.1,-3.8,22.2,17.5,-3.6,5.73,1.89,-3.1,26.5
2015-06-15 01:15:00,0.0,1.88783,0.00034,400.538,0.048,0.6076,0.0036,140.002,45.000,34256.46343,1.89934,403.520,32.675,45.068,45.000,0.00,0.10,-272.73,-272.79,-6,984,-4,22.4,17.0,-3.9,22.2,17.5,-3.7,5.73,1.97,-3.1,26.5
2015-06-15 01:16:00,0.0,1.88746,0.00033,400.492,0.046,0.6101,0.0031,140.001,45.000,34260.51248,1.89901,403.486,32.670,45.068,45.000,0.00,0.10,-272.72,-272.78,-5,984,-4,22.4,17.1,-3.8,22.2,17.5,-3.6,5.73,1.99,-3.1,26.6
2015-06-15 01:17:00,0.0,1.88783,0.00033,400.536,0.056,0.6040,0.0030,139.998,45.000,34259.88340,1.89922,403.500,32.675,45.068,45.000,0.00,0.10,-272.73,-272.78,-5,984,-4,22.4,16.9,-3.9,22.2,17.4,-3.7,5.73,1.92,-3.1,26.6
2015-06-15 01:18:00,0.0,1.88792,0.00036,400.539,0.037,0.6015,0.0022,140.000,45.000,34260.74500,1.89934,403.491,32.686,45.068,45.000,0.00,0.10,-272.73,-272.79,-6,984,-4,22.4,16.8,-4.0,22.2,17.3,-3.8,5.73,1.86,-3.1,26.6
2015-06-15 01:19:00,0.0,1.88745,0.00024,400.485,0.031,0.6088,0.0023,139.998,45.000,34261.51881,1.89897,403.473,32.669,45.068,45.000,0.00,0.10,-272.73,-272.79,-6,984,-4,22.4,17.0,-3.8,22.2,17.4,-3.7,5.73,1.90,-3.1,26.7
2015-06-15 01:20:00,0.0,1.88754,0.00023,400.492,0.026,0.6115,0.0022,140.000,45.000,34262.20121,1.89910,403.490,32.674,45.068,45.000,0.00,0.10,-272.72,-272.79,-5,984,-4,22.4,17.1,-3.7,22.2,17.5,-3.6,5.73,1.99,-3.1,26.8
2015-06-15 01:21:00,0.0,1.88762,0.00026,400.494,0.040,0.6153,0.0032,139.998,45.000,34260.20072,1.89926,403.514,32.684,45.068,45.000,0.00,0.10,-272.73,-272.79,-6,984,-3,22.4,17.2,-3.7,22.2,17.7,-3.5,5.73,1.98,-3.1,26.7
2015-06-15 01:22:00,0.0,1.88798,0.00038,400.486,0.030,0.6149,0.0040,139.998,45.000,34260.57392,1.89956,403.505,32.686,45.068,45.000,0.00,0.10,-272.73,-272.79,-6,985,-4,22.5,17.2,-3.7,22.2,17.6,-3.5,5.73,1.87,-3.1,26.6
2015-06-15 01:23:00,0.0,1.88791,0.00033,400.498,0.028,0.6105,0.0044,140.002,45.000,34263.90359,1.89954,403.493,32.688,45.068,45.000,0.00,0.10,-272.72,-272.79,-6,985,-4,22.5,17.0,-3.8,22.2,17.6,-3.6,5.73,1.86,-3.1,26.6
2015-06-15 01:24:00,0.0,1.88789,0.00028,400.483,0.036,0.6192,0.0073,139.998,45.000,34263.78104,1.89959,403.521,32.688,45.068,45.000,0.00,0.10,-272.73,-272.79,-5,984,-4,22.5,17.3,-3.6,22.2,17.7,-3.5,5.73,1.95,-3.1,26.7
2015-06-15 01:25:00,0.0,1.88761,0.00042,400.422,0.034,0.6321,0.0054,140.001,45.000,34265.44868,1.89958,403.525,32.689,45.068,45.000,0.00,0.10,-272.73,-272.80,-6,984,-4,22.5,17.6,-3.3,22.3,18.1,-3.2,5.73,2.01,-3.1,26.7
2015-06-15 01:26:00,0.0,1.88736,0.00027,400.361,0.045,0.6366,0.0088,140.002,45.000,34266.55827,1.89943,403.487,32.687,45.068,45.000,0.00,0.10,-272.73,-272.79,-6,985,-3,22.5,17.8,-3.2,22.3,18.2,-3.0,5.73,1.92,-3.1,26.6
2015-06-15 01:27:00,0.0,1.88713,0.00042,400.341,0.031,0.6405,0.0049,139.999,45.000,34265.36901,1.89928,403.488,32.688,45.068,45.000,0.00,0.10,-272.72,-272.79,-9,985,-5,22.5,17.9,-3.1,22.3,18.4,-2.9,5.73,1.84,-3.1,26.7
2015-06-15 01:28:00,0.0,1.88715,0.00041,400.296,0.032,0.6464,0.0056,139.995,45.000,34265.86150,1.89935,403.471,32.688,45.068,45.000,0.00,0.10,-272.73,-272.79,-7,985,-6,22.5,18.0,-3.0,22.3,18.5,-2.8,5.73,1.91,-3.1,26.7
2015-06-15 01:29:00,0.0,1.88738,0.00035,400.313,0.035,0.6480,0.0074,139.999,45.000,34265.11518,1.89965,403.495,32.688,45.068,45.000,0.00,0.10,-272.73,-272.79,-10,985,-5,22.5,18.1,-2.9,22.3,18.6,-2.8,5.73,2.00,-3.1,26.7
2015-06-15 01:30:00,0.0,1.88784,0.00027,400.322,0.053,0.6423,0.0082,139.999,45.000,34265.14248,1.90002,403.480,32.688,45.068,45.000,0.00,0.10,-272.73,-272.78,-5,984,-3,22.5,17.9,-3.1,22.3,18.5,-2.8,5.73,1.95,-3.0,26.6
2015-06-15 01:31:00,0.0,1.88808,0.00030,400.461,0.038,0.6180,0.0032,140.004,45.000,34268.05257,1.89978,403.493,32.688,45.068,45.000,0.00,0.10,-272.73,-272.79,-5,985,-4,22.5,17.1,-3.6,22.3,17.7,-3.4,5.73,1.85,-3.0,26.7
2015-06-15 01:32:00,0.0,1.88783,0.00043,400.424,0.046,0.6238,0.0049,140.002,45.000,34267.96226,1.89964,403.487,32.689,45.068,45.000,0.00,0.10,-272.73,-272.79,-6,985,-4,22.5,17.3,-3.5,22.3,17.8,-3.4,5.73,1.88,-3.0,26.7
2015-06-15 01:33:00,0.0,1.88797,0.00036,400.477,0.052,0.6128,0.0086,139.999,45.000,34264.61024,1.89958,403.484,32.688,45.068,45.000,0.00,0.10,-272.73,-272.79,-6,985,-4,22.5,17.0,-3.7,22.3,17.5,-3.5,5.73,1.99,-3.0,26.7
2015-06-15 01:34:00,0.0,1.88845,0.00035,400.490,0.038,0.6143,0.0097,140.000,45.000,34266.13419,1.90008,403.507,32.688,45.068,45.000,0.00,0.10,-272.73,-272.79,-6,985,-4,22.5,17.0,-3.7,22.3,17.6,-3.5,5.73,1.99,-3.0,26.7
2015-06-15 01:35:00,0.0,1.88797,0.00029,400.429,0.060,0.6263,0.0077,139.999,45.000,34267.27694,1.89985,403.501,32.688,45.068,45.000,0.00,0.10,-272.72,-272.80,-6,986,-4,22.5,17.4,-3.5,22.3,17.7,-3.4,5.73,1.88,-3.0,26.7
2015-06-15 01:36:00,0.0,1.88768,0.00041,400.367,0.025,0.6383,0.0040,139.996,45.000,34267.17201,1.89978,403.501,32.689,45.068,45.000,0.00,0.10,-272.72,-272.79,-6,985,-4,22.5,17.8,-3.1,22.3,18.2,-3.0,5.73,1.86,-3.0,26.8
2015-06-15 01:37:00,0.0,1.88776,0.00045,400.265,0.065,0.6475,0.0092,139.997,45.000,34268.48244,1.90000,403.449,32.688,45.068,45.000,0.00,0.10,-272.72,-272.79,-6,985,-4,22.5,18.0,-3.0,22.3,18.5,-2.8,5.73,1.96,-3.0,26.8
2015-06-15 01:38:00,0.0,1.88860,0.00050,400.399,0.044,0.6143,0.0060,140.000,45.000,34268.74094,1.90021,403.416,32.693,45.068,45.000,0.00,0.10,-272.73,-272.79,-6,985,-4,22.5,17.0,-3.7,22.3,17.7,-3.4,5.73,1.99,-3.0,26.8
2015-06-15 01:39:00,0.0,1.88967,0.00045,400.523,0.062,0.5897,0.0122,139.995,45.000,34265.81044,1.90081,403.415,32.698,45.068,45.000,0.00,0.10,-272.73,-272.79,-7,985,-4,22.6,16.2,-4.3,22.3,16.9,-4.0,5.73,1.90,-3.0,26.8
2015-06-15 01:40:00,0.0,1.88954,0.00036,400.557,0.037,0.5810,0.0070,139.999,45.000,34268.87126,1.90057,403.406,32.707,45.068,45.000,0.00,0.10,-272.72,-272.79,-6,985,-4,22.6,16.1,-4.4,22.3,16.5,-4.3,5.73,1.84,-3.0,26.8
2015-06-15 01:41:00,0.0,1.88907,0.00021,400.485,0.046,0.6009,0.0042,140.000,45.000,34271.07142,1.90044,403.432,32.705,45.068,45.000,0.00,0.10,-272.73,-272.79,-6,985,-4,22.6,16.5,-4.1,22.3,17.0,-3.9,5.73,1.93,-3.0,26.8
2015-06-15 01:42:00,0.0,1.88927,0.00035,400.561,0.042,0.5855,0.0069,140.001,45.000,34270.86884,1.90039,403.435,32.701,45.068,45.000,0.00,0.10,-272.73,-272.79,-6,986,-4,22.6,16.1,-4.4,22.3,16.7,-4.1,5.73,2.01,-3.0,26.8
2015-06-15 01:43:00,0.0,1.88879,0.00043,400.412,0.041,0.6145,0.0114,139.998,45.000,34270.88671,1.90041,403.428,32.711,45.068,45.000,0.00,0.10,-272.72,-272.78,-6,985,-4,22.6,17.0,-3.7,22.3,17.3,-3.7,5.73,1.95,-3.0,26.8
2015-06-15 01:44:00,0.0,1.88939,0.00036,400.582,0.069,0.5816,0.0145,139.998,45.000,34271.69088,1.90039,403.436,32.726,45.068,45.000,0.00,0.10,-272.73,-272.79,-6,985,-4,22.6,16.0,-4.5,22.3,16.8,-4.1,5.73,1.85,-3.0,26.8
2015-06-15 01:45:00,0.0,1.88883,0.00049,400.536,0.081,0.5909,0.0117,139.998,45.000,34274.78655,1.90006,403.429,32.731,45.068,45.000,0.00,0.10,-272.73,-272.79,-6,986,-4,22.6,16.2,-4.3,22.3,16.6,-4.3,5.73,1.88,-3.0,26.8
2015-06-15 01:46:00,0.0,1.88878,0.00035,400.578,0.086,0.5864,0.0184,140.001,45.000,34274.19144,1.89986,403.457,32.734,45.068,45.000,0.00,0.10,-272.73,-272.79,-7,985,-4,22.6,16.1,-4.5,22.4,16.8,-4.1,5.73,1.99,-3.0,26.8